Location: Aiyede
(8.4833°N, 4.4500°E)
Time: 09:52:14
(UTC+00:00)

Ariane H10+ - Pass Details

Date: 24 September 2020
Orbit: 636 x 36753 km, 4.7° (Epoch: 21 October)

Event Time Altitude Azimuth Distance (km) Brightness Sun altitude
Rises 19:05:01 0° 260° (W) 8,918 9.3 -22.6°
Reaches altitude 10° 19:14:43 10° 249° (WSW) 4,913 7.5 -25.0°
Maximum altitude 19:22:33 24° 196° (SSW) 1,910 4.6 -27.0°
Enters shadow 19:23:42 23° 175° (S) 1,782 4.3 -27.3°
